Location: Cucq
(50.4773°N, 1.6202°E)
Time: 09:32:05
(UTC+00:00)

GEOS 3 Rocket - Pass Details

Date: 07 August 2020
Orbit: 770 x 849 km, 115.0° (Epoch: 20 September)

Event Time Altitude Azimuth Distance (km) Brightness Sun altitude
Rises 02:12:22 0° 41° (NE) 3,412 8.6 -17.1°
Reaches altitude 10° 02:14:44 10° 36° (NE) 2,479 7.5 -16.9°
Maximum altitude 02:19:57 51° 323° (NW) 1,066 4.3 -16.4°
Enters shadow 02:23:51 18° 254° (WSW) 1,987 5.2 -16.1°
